Weather History for Muscle Shoals, AL

Change the Weather History Date:

Thursday, November 7, 2013

  Actual Average Record
Temperature  
Mean Temperature 52 °F 55 °F  
Max Temperature 64 °F 67 °F 84 °F (1915)
Min Temperature 40 °F 43 °F 24 °F (1993)
Degree Days  
Heating Degree Days 13 10  
Month to date heating degree days 60 67  
Since 1 July heating degree days 190 235  
Cooling Degree Days 0 0  
Month to date cooling degree days 0 4  
Year to date cooling degree days 1894 1868  
Moisture  
Dew Point 38 °F    
Average Humidity 61    
Maximum Humidity 89    
Minimum Humidity 33    
Precipitation  
Precipitation 0.05 in 0.13 in 1.24 in (1943)
Month to date precipitation 0.61 0.92  
Year to date precipitation 47.77 43.78  
Snow  
Snow 0.00 in - - ()
Month to date snowfall 0.0  
Since 1 July snowfall 0.0  
Since 1 September snowfall 0.0  
Snow Depth 0.00 in    
Sea Level Pressure  
Sea Level Pressure 30.26 in    
Wind  
Wind Speed 8 mph (NNW)    
Max Wind Speed 23 mph    
Max Gust Speed 31 mph    
Visibility 9 miles    
Events Rain    
T = Trace of Precipitation, MM = Missing Value Source: NWS Daily Summary

Daily Weather History Graph

Daily Weather History Graph

Search for Another Location

Airport:

Trip Planner

Search our weather history database for the weather conditions in past years. The results will help you decide how hot, cold, wet, or windy it might be!

Date:

Astronomy

Nov. 07, 2013 Rise Set
Actual Time 6:16 AM CST 4:50 PM CST
Civil Twilight 5:50 AM CST 5:17 PM CST
Nautical Twilight 5:20 AM CST 5:47 PM CST
Astronomical Twilight 4:50 AM CST 6:17 PM CST
Moon 10:23 AM CST (11/7) 9:03 PM CST (11/7)
Length of Visible Light 11h 26m
Length of Day
10h 33m
Waxing Crescent, 23% of the Moon is Illuminated
Nov 7
Waxing Crescent
Nov 9
First Quarter
Nov 17
Full
Nov 25
Last Quarter
Dec 2
New

Hourly Weather History & Observations

Time (CST) Temp. Windchill Dew Point Humidity Pressure Visibility Wind Dir Wind Speed Gust Speed Precip Events Conditions
12:39 AM 55.4 °F - 51.8 °F 88% 30.13 in 8.0 mi NW 12.7 mph 20.7 mph 0.03 in Rain Light Rain
12:53 AM 54.0 °F - 50.0 °F 86% 30.14 in 10.0 mi NW 13.8 mph - 0.03 in Rain Light Rain
1:15 AM 53.6 °F - 50.0 °F 88% 30.14 in 5.0 mi NNW 10.4 mph 19.6 mph N/A   Overcast
1:25 AM 53.6 °F - 48.2 °F 82% 30.15 in 4.0 mi North 15.0 mph 21.9 mph 0.00 in Rain Light Rain
1:41 AM 51.8 °F - 48.2 °F 88% 30.16 in 6.0 mi NNW 12.7 mph 18.4 mph 0.00 in   Overcast
1:53 AM 52.0 °F - 46.9 °F 83% 30.16 in 7.0 mi NNW 11.5 mph 25.3 mph 0.00 in   Overcast
2:18 AM 51.8 °F - 46.4 °F 82% 30.18 in 10.0 mi NNW 9.2 mph - N/A   Overcast
2:33 AM 50.0 °F - 46.4 °F 87% 30.18 in 10.0 mi NW 8.1 mph - N/A   Overcast
2:40 AM 50.0 °F - 46.4 °F 87% 30.19 in 10.0 mi NW 8.1 mph - N/A   Overcast
2:53 AM 48.9 °F - 45.0 °F 86% 30.18 in 9.0 mi NW 9.2 mph - 0.01 in Rain Light Rain
3:53 AM 48.0 °F - 43.0 °F 83% 30.20 in 10.0 mi NW 11.5 mph 20.7 mph 0.01 in   Overcast
4:43 AM 46.4 °F 42.9 °F 42.8 °F 87% 30.22 in 9.0 mi North 6.9 mph - N/A   Overcast
4:53 AM 46.9 °F - 42.1 °F 83% 30.22 in 10.0 mi NNW 9.2 mph - N/A   Overcast
5:53 AM 45.0 °F 39.3 °F 37.9 °F 76% 30.27 in 10.0 mi North 11.5 mph 19.6 mph N/A   Overcast
6:09 AM 44.6 °F 39.7 °F 37.4 °F 76% 30.28 in 10.0 mi NNW 9.2 mph 23.0 mph N/A   Overcast
6:53 AM 46.0 °F 40.2 °F 37.0 °F 71% 30.30 in 10.0 mi North 12.7 mph - N/A   Overcast
7:53 AM 45.0 °F 41.2 °F 37.0 °F 74% 30.35 in 10.0 mi North 6.9 mph 16.1 mph N/A   Overcast
8:53 AM 46.0 °F 41.9 °F 36.0 °F 68% 30.35 in 10.0 mi North 8.1 mph - N/A   Scattered Clouds
9:53 AM 50.0 °F - 37.0 °F 61% 30.35 in 10.0 mi NNE 8.1 mph - N/A   Partly Cloudy
10:53 AM 53.1 °F - 37.0 °F 55% 30.33 in 10.0 mi NNW 6.9 mph - N/A   Clear
11:53 AM 55.0 °F - 34.0 °F 45% 30.32 in 10.0 mi North 8.1 mph 17.3 mph N/A   Clear
12:53 PM 57.0 °F - 30.9 °F 37% 30.30 in 10.0 mi North 9.2 mph 16.1 mph N/A   Clear
1:53 PM 57.9 °F - 28.9 °F 33% 30.29 in 10.0 mi North 11.5 mph 18.4 mph N/A   Clear
2:53 PM 57.9 °F - 30.9 °F 36% 30.28 in 10.0 mi NNW 5.8 mph - N/A   Clear
3:53 PM 55.9 °F - 30.0 °F 37% 30.29 in 10.0 mi NW 11.5 mph - N/A   Clear
4:53 PM 53.1 °F - 28.9 °F 40% 30.30 in 10.0 mi NNW 6.9 mph - N/A   Clear
5:53 PM 50.0 °F - 30.0 °F 46% 30.32 in 10.0 mi NNW 4.6 mph - N/A   Clear
6:53 PM 48.0 °F - 30.9 °F 52% 30.33 in 10.0 mi NNW 4.6 mph - N/A   Clear
7:53 PM 46.9 °F - 30.9 °F 54% 30.34 in 10.0 mi NW 3.5 mph - N/A   Clear
8:53 PM 46.0 °F 43.9 °F 30.0 °F 54% 30.35 in 10.0 mi NNW 4.6 mph - N/A   Clear
9:53 PM 45.0 °F 43.5 °F 30.0 °F 56% 30.35 in 10.0 mi NNW 3.5 mph - N/A   Clear
10:53 PM 45.0 °F - 30.0 °F 56% 30.35 in 10.0 mi Calm Calm - N/A   Clear
11:53 PM 39.9 °F - 30.9 °F 70% 30.35 in 10.0 mi Calm Calm - N/A   Clear